Stations météo

réclame
Mon MeteoGroup
Eskilstuna, Suède (2449): Température de l'air & dewpoint: 16.06.2018 19:00:00 - 22.06.2018 19:00:00 (CEST)Eskilstuna, Suède (2449): Vitesse du vent & gusts: 16.06.2018 19:00:00 - 22.06.2018 19:00:00 (CEST)Eskilstuna, Suède (2449): Direction du vent: 16.06.2018 19:00:00 - 22.06.2018 19:00:00 (CEST)Eskilstuna, Suède (2449): reduced air pressure: 16.06.2018 19:00:00 - 22.06.2018 19:00:00 (CEST)Eskilstuna, Suède (2449): visibility: 16.06.2018 19:00:00 - 22.06.2018 19:00:00 (CEST)Eskilstuna, Suède (2449): Quantités de précipitations: 16.06.2018 19:00:00 - 22.06.2018 19:00:00 (CEST)
Date & Time tt [°C] td [°C] ff [km/h] ff [knt] fx [km/h] fx [knt] dd ppp [hPa] vv [km] rr [mm]
22.06.2018 19:00:00 - - - - - - - - - -
22.06.2018 18:00:00 12,6 5,0 25 14 46 25 WNW 1004,6 21 0,0
22.06.2018 17:00:00 14,5 4,5 16 9 46 25 WNW 1003,8 46 0,0
22.06.2018 16:00:00 15,5 4,8 20 11 41 22 WNW 1003,1 43 0,0
22.06.2018 15:00:00 14,6 7,2 14 7 49 27 WNW 1002,7 40 0,0
22.06.2018 14:00:00 14,8 6,6 21 11 49 27 W 1002,3 44 0,0
22.06.2018 13:00:00 17,3 5,6 20 11 44 24 W 1001,4 50 0,0
22.06.2018 12:00:00 16,7 5,0 27 15 46 25 NW 1001,2 47 0,0
22.06.2018 11:00:00 14,9 5,7 22 12 46 25 NW 1000,9 40 0,0
22.06.2018 10:00:00 13,3 6,9 24 13 39 21 NW 1000,5 45 0,0
22.06.2018 09:00:00 10,2 6,2 22 12 48 26 NW 999,9 42 0,1
22.06.2018 08:00:00 9,7 6,2 23 13 49 27 NW 999,0 50 0,0
22.06.2018 07:00:00 9,4 6,7 29 16 49 27 NW 998,2 17 0,0
22.06.2018 06:00:00 9,3 7,1 28 15 48 26 NW 997,3 19 0,2
22.06.2018 05:00:00 9,4 7,8 23 12 48 26 WNW 996,6 22 0,8
22.06.2018 04:00:00 9,3 8,1 19 10 48 26 NW 996,1 9 3,6
22.06.2018 03:00:00 8,8 7,2 19 10 48 26 NNW 996,3 8 1,6
22.06.2018 02:00:00 8,8 7,4 20 11 42 23 WNW 996,4 17 1,3
22.06.2018 01:00:00 8,6 7,4 20 11 41 22 WNW 996,9 16 2,5
22.06.2018 00:00:00 8,3 7,1 23 12 41 22 NW 997,2 9 3,1
21.06.2018 23:00:00 8,3 7,2 23 12 48 26 NW 997,2 8 4,2
21.06.2018 22:00:00 8,2 6,8 23 12 48 26 NW 997,3 9 2,8
21.06.2018 21:00:00 8,7 7,5 25 13 41 22 NW 997,2 8 1,9
21.06.2018 20:00:00 9,5 8,6 20 11 35 19 NNW 997,2 4,0 1,4
21.06.2018 19:00:00 10,0 9,1 15 8 31 17 NNW 997,5 3,4 0,6
21.06.2018 18:00:00 11,3 10,4 6 4 15 8 N 997,4 4,1 0,3
21.06.2018 17:00:00 11,2 10,1 6 3 18 10 N 998,1 3,4 0,0
21.06.2018 16:00:00 11,1 10,0 9 5 18 10 N 998,4 10 0,0
21.06.2018 15:00:00 11,2 9,3 10 5 21 12 N 998,9 46 0,0
21.06.2018 14:00:00 11,5 9,9 9 5 21 12 NNE 998,7 16 0,1
21.06.2018 13:00:00 11,0 10,1 11 6 21 12 NNE 999,2 5 0,5
21.06.2018 12:00:00 10,9 10,0 10 5 20 11 NNE 999,8 3,5 0,1
21.06.2018 11:00:00 12,2 11,1 6 4 14 8 ENE 1000,2 37 0,0
21.06.2018 10:00:00 11,9 11,0 8 4 14 8 E 1000,5 10 0,1
21.06.2018 09:00:00 11,4 10,6 8 4 15 8 ENE 1000,9 5 2,3
21.06.2018 08:00:00 11,3 10,4 5 3 15 8 NE 1001,5 5 0,9
21.06.2018 07:00:00 11,1 10,3 6 4 11 6 ENE 1002,2 7 1,0
21.06.2018 06:00:00 11,0 10,2 5 3 11 6 E 1002,8 9 0,1
21.06.2018 05:00:00 10,8 10,2 4 2 5 3 E 1003,3 18 0,0
21.06.2018 04:00:00 10,4 9,8 4 2 5 3 E 1004,0 16 0,1
21.06.2018 03:00:00 10,5 9,7 0 0 5 3 N 1004,8 15 0,2
21.06.2018 02:00:00 10,6 9,7 0 0 8 4 N 1005,4 33 0,0
21.06.2018 01:00:00 10,8 9,6 2 1 10 5 SSW 1006,0 49 0,0
21.06.2018 00:00:00 10,7 9,5 3 2 10 5 SW 1006,5 45 0,0
20.06.2018 23:00:00 10,2 9,3 2 1 13 7 SW 1007,2 42 0,0
20.06.2018 22:00:00 9,9 8,5 2 1 16 8 SW 1007,2 39 0,0
20.06.2018 21:00:00 11,4 9,3 5 3 16 8 SW 1007,5 43 0,0
20.06.2018 20:00:00 11,3 9,2 5 3 16 8 SW 1008,2 45 0,0
20.06.2018 19:00:00 11,3 9,6 8 5 23 12 WSW 1008,7 19 0,3
20.06.2018 18:00:00 11,0 8,2 8 4 36 19 SW 1009,3 25 0,8
20.06.2018 17:00:00 12,5 7,0 12 6 48 26 WSW 1010,1 39 0,2
20.06.2018 16:00:00 15,2 4,3 23 13 48 26 WSW 1010,6 41 0,0
20.06.2018 15:00:00 15,9 4,3 27 15 54 29 WSW 1010,8 44 0,0
20.06.2018 14:00:00 17,7 3,9 29 15 54 29 WSW 1010,9 41 0,0
20.06.2018 13:00:00 18,0 3,8 30 16 55 30 WSW 1011,1 39 0,0
20.06.2018 12:00:00 17,7 3,9 31 17 55 30 WSW 1011,6 39 0,0
20.06.2018 11:00:00 18,0 4,2 24 13 44 24 WSW 1011,1 30 0,0
20.06.2018 10:00:00 16,7 3,0 24 13 44 24 WSW 1011,3 38 0,0
20.06.2018 09:00:00 16,1 3,8 23 13 44 24 W 1011,3 39 0,0
20.06.2018 08:00:00 15,0 2,8 29 16 44 24 W 1011,6 33 0,0
20.06.2018 07:00:00 13,8 4,1 23 12 39 21 W 1011,4 42 0,0
20.06.2018 06:00:00 12,9 5,8 25 14 39 21 W 1011,2 42 0,0
20.06.2018 05:00:00 12,1 7,0 21 11 42 23 WSW 1010,4 33 0,0
20.06.2018 04:00:00 11,8 6,9 22 12 42 23 W 1010,0 34 0,0
20.06.2018 03:00:00 11,8 7,1 21 12 49 26 WSW 1009,4 30 0,0
20.06.2018 02:00:00 12,5 7,0 26 14 49 26 WSW 1008,9 29 -
20.06.2018 01:00:00 13,0 7,0 29 16 51 28 WSW 1008,8 28 0,0
20.06.2018 00:00:00 13,4 7,0 28 15 55 30 WSW 1008,8 27 0,0
19.06.2018 23:00:00 14,0 6,6 31 17 58 31 WSW 1008,6 28 0,0
19.06.2018 22:00:00 14,6 6,2 30 16 58 31 WSW 1008,4 32 0,0
19.06.2018 21:00:00 15,8 5,7 30 16 61 33 W 1008,0 33 0,0
19.06.2018 20:00:00 17,3 5,9 24 13 67 36 W 1007,7 30 0,0
19.06.2018 19:00:00 18,4 5,6 36 19 67 36 WSW 1007,2 29 0,0
19.06.2018 18:00:00 19,6 5,3 36 19 65 35 W 1006,4 34 0,0
19.06.2018 17:00:00 19,8 5,1 38 21 65 35 W 1006,1 33 0,0
19.06.2018 16:00:00 20,1 5,0 42 23 61 33 WSW 1005,6 34 0,0
19.06.2018 15:00:00 20,1 5,0 44 24 66 36 W 1005,3 37 0,0
19.06.2018 14:00:00 19,5 3,6 41 22 74 40 W 1004,8 34 0,0
19.06.2018 13:00:00 19,2 4,5 40 22 74 40 WSW 1003,9 31 0,0
19.06.2018 12:00:00 17,5 6,4 42 23 70 38 W 1003,7 31 0,0
19.06.2018 11:00:00 13,6 9,3 32 17 70 38 W 1003,8 10 0,0
19.06.2018 10:00:00 16,1 7,8 34 18 61 33 WSW 1003,4 27 0,0
19.06.2018 09:00:00 14,2 7,9 29 16 61 33 WSW 1003,6 22 0,0
19.06.2018 08:00:00 14,2 7,0 38 21 61 33 WSW 1003,8 25 0,0
19.06.2018 07:00:00 14,3 6,9 31 17 58 31 WSW 1004,4 29 0,0
19.06.2018 06:00:00 13,5 7,3 30 16 51 28 WSW 1004,5 19 0,0
19.06.2018 05:00:00 14,8 9,0 23 12 36 20 WSW 1005,1 45 0,0
19.06.2018 04:00:00 14,7 10,9 13 7 39 21 WSW 1005,6 50 0,0
19.06.2018 03:00:00 15,2 11,8 19 11 39 21 WSW 1006,3 50 0,0
19.06.2018 02:00:00 16,3 11,5 10 5 24 13 SSW 1006,4 24 0,0
19.06.2018 01:00:00 16,5 11,0 9 5 25 13 SSW 1007,1 50 0,0
19.06.2018 00:00:00 16,6 10,0 9 5 25 13 SW 1008,2 50 0,0
18.06.2018 23:00:00 16,7 9,4 7 4 22 12 SW 1008,9 48 0,0
18.06.2018 22:00:00 17,3 8,4 8 4 22 12 SSW 1009,5 45 0,0
18.06.2018 21:00:00 17,9 8,2 9 5 30 16 SW 1009,7 50 0,0
18.06.2018 20:00:00 18,3 8,6 8 4 39 21 WSW 1010,1 49 0,0
18.06.2018 19:00:00 18,5 8,2 17 9 47 25 W 1010,6 50 0,0
18.06.2018 18:00:00 18,7 7,2 24 13 52 28 WSW 1010,7 44 0,0
18.06.2018 17:00:00 19,2 6,7 32 17 52 28 WSW 1011,0 47 0,0
18.06.2018 16:00:00 19,2 7,3 29 15 48 26 WSW 1011,2 41 0,0
18.06.2018 15:00:00 18,2 9,5 19 11 46 25 WSW 1011,5 47 0,0
18.06.2018 14:00:00 18,6 9,1 21 11 44 24 WSW 1011,5 38 0,0
18.06.2018 13:00:00 18,4 9,2 25 14 38 21 WSW 1011,5 34 0,0
18.06.2018 12:00:00 17,7 9,3 18 10 37 20 WSW 1011,7 38 0,0
18.06.2018 11:00:00 15,6 9,5 23 12 40 22 WSW 1011,8 45 0,0
18.06.2018 10:00:00 14,7 9,3 14 8 40 22 WSW 1011,7 39 0,0
18.06.2018 09:00:00 14,5 9,7 14 8 35 19 WSW 1011,5 39 0,0
18.06.2018 08:00:00 14,3 9,9 16 9 33 18 WSW 1011,4 39 0,0
18.06.2018 07:00:00 13,4 9,6 10 6 25 13 SW 1011,3 38 0,0
18.06.2018 06:00:00 12,3 9,3 8 4 24 13 SW 1011,3 35 0,0
18.06.2018 05:00:00 10,9 8,8 5 3 15 8 SW 1011,3 40 0,0
18.06.2018 04:00:00 10,4 8,8 5 3 14 8 SW 1011,2 41 0,0
18.06.2018 03:00:00 10,8 9,1 4 2 20 11 SW 1011,2 44 0,0
18.06.2018 02:00:00 11,2 9,1 5 3 20 11 SW 1010,9 50 0,0
18.06.2018 01:00:00 11,8 9,4 9 5 42 23 SW 1010,8 50 0,0
18.06.2018 00:00:00 12,2 10,4 6 3 44 24 SW 1010,4 50 0,2
17.06.2018 23:00:00 14,9 11,7 15 8 40 21 SW 1010,0 32 0,0
17.06.2018 22:00:00 15,0 13,4 3 2 15 8 S 1009,5 19 0,0
17.06.2018 21:00:00 15,8 13,1 3 2 19 10 S 1009,5 32 0,0
17.06.2018 20:00:00 16,7 13,8 4 2 22 12 S 1009,5 30 0,0
17.06.2018 19:00:00 16,4 13,9 4 2 22 12 S 1009,8 27 0,0
17.06.2018 18:00:00 16,2 13,7 9 5 17 9 ESE 1010,4 23 0,0
17.06.2018 17:00:00 14,2 12,8 9 5 19 11 E 1010,8 27 1,5
17.06.2018 16:00:00 14,1 12,7 6 3 26 14 S 1012,6 4,5 2,5
17.06.2018 15:00:00 15,4 11,0 4 2 26 14 S 1012,7 18 0,4
17.06.2018 14:00:00 18,1 11,2 5 3 25 13 S 1012,3 24 0,0
17.06.2018 13:00:00 19,6 9,8 8 4 25 13 SSE 1012,8 35 0,0
17.06.2018 12:00:00 20,0 10,1 9 5 23 13 ESE 1013,2 32 0,0
17.06.2018 11:00:00 19,2 10,5 5 3 12 6 ESE 1013,9 38 0,0
17.06.2018 10:00:00 18,6 9,9 3 1 13 7 SE 1014,3 36 0,0
17.06.2018 09:00:00 17,8 9,2 3 2 13 7 S 1014,8 41 0,0
17.06.2018 08:00:00 17,1 8,8 0 0 10 6 N 1014,8 47 0,0
17.06.2018 07:00:00 16,1 7,8 4 2 10 6 SE 1015,2 42 0,0
17.06.2018 06:00:00 15,2 8,7 4 2 10 5 ESE 1015,6 48 0,0
17.06.2018 05:00:00 14,8 6,9 4 2 9 5 ESE 1015,4 50 0,0
17.06.2018 04:00:00 14,5 6,6 0 0 9 5 N 1015,5 50 0,0
17.06.2018 03:00:00 11,8 7,1 2 1 9 5 WNW 1015,8 49 0,0
17.06.2018 02:00:00 11,3 6,2 0 0 9 5 N 1016,0 41 0,0
17.06.2018 01:00:00 13,5 6,4 0 0 6 4 N 1016,2 49 0,0
17.06.2018 00:00:00 13,5 6,8 0 0 7 4 N 1016,3 49 0,0
16.06.2018 23:00:00 15,0 6,5 2 1 11 6 SE 1016,3 47 0,0
16.06.2018 22:00:00 16,7 6,8 2 1 11 6 SSE 1016,4 50 0,0
16.06.2018 21:00:00 19,6 7,0 2 1 12 7 SSW 1016,1 41 0,0
16.06.2018 20:00:00 20,2 6,5 3 1 21 12 SW 1016,1 43 0,0
16.06.2018 19:00:00 20,3 6,3 5 3 24 13 WSW 1016,1 29 0,0

tt = Température de l'air
td = dewpoint
ff = Vitesse du vent
fx = gusts
dd = Direction du vent
ppp = reduced air pressure
vv = visibility
rr = Quantités de précipitations

stations d'obs. à proximité